Location: Potomac
(46.8816°N, 113.5795°W)
Time: 20:00:55
(UTC+00:00)

JY1SAT - Pass Details

Date: 06 July 2022
Orbit: 563 x 587 km, 97.6° (Epoch: 11 August)

Event Time Altitude Azimuth Distance (km) Brightness Sun altitude
Exits shadow 06:06:18 - 223° (SW) 2,007 ? -17.3°
Reaches altitude 10° 06:06:39 10° 227° (SW) 1,911 ? -17.4°
Maximum altitude 06:09:26 17° 269° (W) 1,496 ? -17.5°
Drops below altitude 10° 06:12:14 10° 311° (NW) 1,919 ? -17.7°
Sets 06:15:02 0° 332° (NNW) 2,823 ? -17.9°
